Change the Weather History Date:

Friday, February 8, 2013

  Actual Average (KHTS) Record (KHTS)
Temperature  
Mean Temperature 39 °F 36 °F  
Max Temperature 46 °F 45 °F 77 °F (1937)
Min Temperature 32 °F 27 °F -5 °F (1899)
Degree Days  
Heating Degree Days 26 29  
Month to date heating degree days 238  
Since 1 July heating degree days 2962  
Cooling Degree Days 0 0  
Month to date cooling degree days 0  
Year to date cooling degree days 0  
Moisture  
Dew Point 33 °F    
Average Humidity 77    
Maximum Humidity 100    
Minimum Humidity 66    
Precipitation  
Precipitation 0.00 in 0.11 in 1.44 in (1994)
Month to date precipitation 0.86  
Year to date precipitation 3.83  
Snow  
Snow 0.00 in - - ()
Month to date snowfall  
Since 1 September snowfall  
Snow Depth -    
Sea Level Pressure  
Sea Level Pressure 30.03 in    
Wind  
Wind Speed 5 mph (West)    
Max Wind Speed 14 mph    
Max Gust Speed 24 mph    
Visibility 9 miles    
Events Rain    
T = Trace of Precipitation, MM = Missing Value Source: NWS Daily Summary

Daily Weather History Graph

Daily Weather History Graph

Search for Another Location

Airport or City:

Trip Planner

Search our weather history database for the weather conditions in past years. The results will help you decide how hot, cold, wet, or windy it might be!

Date:

Astronomy

Feb. 08, 2013 Rise Set
Actual Time 7:27 AM EST 5:58 PM EST
Civil Twilight 6:59 AM EST 6:25 PM EST
Nautical Twilight 6:28 AM EST 6:57 PM EST
Astronomical Twilight 5:57 AM EST 7:28 PM EST
Moon 5:54 AM EST (2/8) 4:30 PM EST (2/8)
Length of Visible Light 11h 26m
Length of Day
10h 30m
Waning Crescent, 3% of the Moon is Illuminated
Feb 8
Waning Crescent
Feb 10
New
Feb 17
First Quarter
Feb 25
Full
Mar 4
Last Quarter

Hourly Weather History & Observations

Time (EST) Temp. Windchill Dew Point Humidity Pressure Visibility Wind Dir Wind Speed Gust Speed Precip Events Conditions
12:15 AM 46.4 °F 44.3 °F 35.6 °F 66% 29.91 in 10.0 mi SE 4.6 mph - N/A   Clear
12:35 AM 46.4 °F 44.3 °F 35.6 °F 66% 29.91 in 10.0 mi SE 4.6 mph - N/A   Clear
12:55 AM 46.4 °F 45.2 °F 35.6 °F 66% 29.91 in 10.0 mi SE 3.5 mph - N/A   Clear
1:15 AM 46.4 °F 45.2 °F 35.6 °F 66% 29.90 in 10.0 mi SE 3.5 mph - N/A   Clear
1:35 AM 46.4 °F 45.2 °F 35.6 °F 66% 29.89 in 10.0 mi SSE 3.5 mph - N/A   Clear
1:55 AM 46.4 °F 43.5 °F 35.6 °F 66% 29.88 in 10.0 mi SSE 5.8 mph - N/A   Clear
2:15 AM 44.6 °F 43.1 °F 35.6 °F 71% 29.87 in 10.0 mi SE 3.5 mph - N/A   Clear
2:35 AM 44.6 °F - 35.6 °F 71% 29.87 in 10.0 mi Calm Calm - N/A   Clear
2:55 AM 44.6 °F - 35.6 °F 71% 29.87 in 10.0 mi Calm Calm - N/A   Clear
3:15 AM 44.6 °F - 35.6 °F 71% 29.87 in 10.0 mi Calm Calm - N/A   Clear
3:35 AM 44.6 °F - 35.6 °F 71% 29.86 in 10.0 mi Calm Calm - N/A   Clear
3:55 AM 44.6 °F 43.1 °F 35.6 °F 71% 29.85 in 10.0 mi SSE 3.5 mph - N/A   Clear
4:35 AM 44.6 °F - 35.6 °F 71% 29.84 in 10.0 mi Calm Calm - N/A   Scattered Clouds
4:55 AM 44.6 °F 43.1 °F 35.6 °F 71% 29.84 in 10.0 mi SSW 3.5 mph - N/A   Overcast
5:15 AM 44.6 °F 43.1 °F 35.6 °F 71% 29.84 in 10.0 mi SSE 3.5 mph - N/A   Overcast
5:35 AM 46.4 °F 45.2 °F 37.4 °F 71% 29.83 in 10.0 mi South 3.5 mph - N/A   Overcast
5:55 AM 46.4 °F 43.5 °F 37.4 °F 71% 29.83 in 10.0 mi South 5.8 mph - N/A   Overcast
6:15 AM 46.4 °F - 37.4 °F 71% 29.82 in 10.0 mi Calm Calm - N/A   Light Drizzle
6:35 AM 46.4 °F 45.2 °F 37.4 °F 71% 29.82 in 10.0 mi SW 3.5 mph - N/A   Overcast
6:55 AM 44.6 °F 42.2 °F 37.4 °F 76% 29.83 in 7.0 mi SW 4.6 mph - N/A Rain Light Rain
7:15 AM 44.6 °F 43.1 °F 39.2 °F 81% 29.84 in 7.0 mi WSW 3.5 mph - N/A Rain Light Rain
7:35 AM 42.8 °F - 41.0 °F 93% 29.84 in 7.0 mi Calm Calm - N/A Rain Light Rain
7:55 AM 42.8 °F 40.1 °F 41.0 °F 93% 29.86 in 4.0 mi SW 4.6 mph - N/A Rain Rain
8:15 AM 42.8 °F - 41.0 °F 93% 29.87 in 4.0 mi Calm Calm - N/A Rain Light Rain
8:35 AM 42.8 °F - 42.8 °F 100% 29.88 in 3.0 mi Calm Calm - N/A Rain Rain
8:55 AM 44.6 °F - 42.8 °F 93% 29.89 in 7.0 mi Calm Calm - N/A Rain Light Rain
9:15 AM 44.6 °F 39.7 °F 42.8 °F 93% 29.90 in 10.0 mi WNW 9.2 mph - N/A   Overcast
9:35 AM 42.8 °F 37.5 °F 41.0 °F 93% 29.92 in 10.0 mi WNW 9.2 mph - N/A   Overcast
9:55 AM 42.8 °F 40.1 °F 37.4 °F 81% 29.93 in 10.0 mi WNW 4.6 mph 17.3 mph N/A   Overcast
10:15 AM 41.0 °F 36.4 °F 37.4 °F 87% 29.96 in 7.0 mi WNW 6.9 mph - N/A   Overcast
10:35 AM 41.0 °F 34.3 °F 35.6 °F 81% 29.97 in 5.0 mi West 11.5 mph 19.6 mph N/A   Mostly Cloudy
10:55 AM 41.0 °F 34.7 °F 33.8 °F 76% 29.98 in 7.0 mi West 10.4 mph 24.2 mph N/A   Mostly Cloudy
11:15 AM 39.2 °F 33.6 °F 33.8 °F 81% 29.99 in 10.0 mi WNW 8.1 mph 20.7 mph N/A   Overcast
11:35 AM 39.2 °F 35.0 °F 33.8 °F 81% 30.01 in 10.0 mi WNW 5.8 mph - N/A   Overcast
11:55 AM 39.2 °F 33.0 °F 33.8 °F 81% 30.01 in 10.0 mi West 9.2 mph 17.3 mph N/A   Overcast
12:15 PM 39.2 °F 35.0 °F 33.8 °F 81% 30.01 in 10.0 mi West 5.8 mph - N/A   Overcast
12:35 PM 39.2 °F 33.0 °F 33.8 °F 81% 30.01 in 10.0 mi NW 9.2 mph 19.6 mph N/A   Overcast
12:55 PM 39.2 °F 32.0 °F 32.0 °F 75% 30.02 in 10.0 mi West 11.5 mph 18.4 mph N/A   Overcast
1:15 PM 39.2 °F 32.5 °F 32.0 °F 75% 30.03 in 10.0 mi West 10.4 mph 16.1 mph N/A   Overcast
1:35 PM 37.4 °F 28.9 °F 32.0 °F 81% 30.04 in 7.0 mi WNW 13.8 mph 21.9 mph N/A   Mostly Cloudy
1:55 PM 37.4 °F 33.8 °F 32.0 °F 81% 30.05 in 7.0 mi WNW 4.6 mph 19.6 mph N/A   Scattered Clouds
2:15 PM 37.4 °F 29.8 °F 32.0 °F 81% 30.06 in 7.0 mi West 11.5 mph 16.1 mph N/A   Scattered Clouds
2:35 PM 37.4 °F 30.8 °F 32.0 °F 81% 30.06 in 10.0 mi West 9.2 mph 17.3 mph N/A   Mostly Cloudy
2:55 PM 37.4 °F 30.3 °F 30.2 °F 75% 30.07 in 10.0 mi WNW 10.4 mph 23.0 mph N/A   Overcast
3:15 PM 37.4 °F 30.3 °F 30.2 °F 75% 30.07 in 10.0 mi WNW 10.4 mph - N/A   Overcast
3:35 PM 37.4 °F 31.4 °F 30.2 °F 75% 30.10 in 10.0 mi WNW 8.1 mph - N/A   Overcast
3:55 PM 35.6 °F 30.7 °F 30.2 °F 81% 30.10 in 10.0 mi WNW 5.8 mph 19.6 mph N/A   Overcast
4:15 PM 35.6 °F 29.9 °F 30.2 °F 81% 30.11 in 10.0 mi WNW 6.9 mph - N/A   Mostly Cloudy
4:35 PM 35.6 °F 29.9 °F 30.2 °F 81% 30.12 in 10.0 mi West 6.9 mph - N/A   Mostly Cloudy
4:55 PM 35.6 °F 29.9 °F 30.2 °F 81% 30.12 in 10.0 mi WNW 6.9 mph - N/A   Mostly Cloudy
5:15 PM 35.6 °F 29.2 °F 30.2 °F 81% 30.13 in 10.0 mi WNW 8.1 mph - N/A   Mostly Cloudy
5:35 PM 35.6 °F 31.7 °F 30.2 °F 81% 30.15 in 10.0 mi West 4.6 mph - N/A   Mostly Cloudy
5:55 PM 35.6 °F 29.9 °F 30.2 °F 81% 30.16 in 10.0 mi West 6.9 mph - N/A   Mostly Cloudy
6:35 PM 35.6 °F 29.2 °F 30.2 °F 81% 30.18 in 10.0 mi WNW 8.1 mph - N/A   Overcast
6:55 PM 35.6 °F 29.9 °F 28.4 °F 75% 30.19 in 10.0 mi WNW 6.9 mph - N/A   Mostly Cloudy
7:15 PM 35.6 °F 29.2 °F 28.4 °F 75% 30.20 in 10.0 mi WNW 8.1 mph - N/A   Overcast
7:35 PM 35.6 °F 28.6 °F 28.4 °F 75% 30.21 in 10.0 mi WNW 9.2 mph - N/A   Mostly Cloudy
7:55 PM 35.6 °F 30.7 °F 28.4 °F 75% 30.22 in 10.0 mi West 5.8 mph 16.1 mph N/A   Overcast
8:15 PM 35.6 °F 29.9 °F 28.4 °F 75% 30.23 in 10.0 mi WNW 6.9 mph - N/A   Overcast
8:35 PM 35.6 °F 32.8 °F 28.4 °F 75% 30.24 in 10.0 mi NW 3.5 mph - N/A   Overcast
8:55 PM 33.8 °F 28.6 °F 28.4 °F 81% 30.25 in 10.0 mi WNW 5.8 mph - N/A   Overcast
9:15 PM 33.8 °F 28.6 °F 26.6 °F 75% 30.27 in 10.0 mi WNW 5.8 mph - N/A   Overcast
9:35 PM 33.8 °F 28.6 °F 26.6 °F 75% 30.27 in 10.0 mi West 5.8 mph - N/A   Overcast
9:55 PM 33.8 °F 29.6 °F 26.6 °F 75% 30.27 in 10.0 mi West 4.6 mph - N/A   Overcast
10:15 PM 33.8 °F 27.7 °F 26.6 °F 75% 30.28 in 10.0 mi West 6.9 mph - N/A   Overcast
10:35 PM 33.8 °F 30.8 °F 26.6 °F 75% 30.29 in 10.0 mi West 3.5 mph - N/A   Overcast
10:55 PM 33.8 °F 27.7 °F 26.6 °F 75% 30.29 in 10.0 mi WNW 6.9 mph - N/A   Overcast
11:15 PM 32.0 °F 27.5 °F 24.8 °F 75% 30.29 in 10.0 mi WNW 4.6 mph 16.1 mph N/A   Overcast
11:35 PM 32.0 °F 24.8 °F 24.8 °F 75% 30.29 in 10.0 mi WNW 8.1 mph - N/A   Overcast
11:55 PM 32.0 °F - 24.8 °F 75% 30.30 in 10.0 mi Calm Calm - N/A   Overcast